#timestamp,LO_Frequency,Hit,StdDev 
1458939615.4,286046997.9,N
1458939635.2,286046997.3,N
1458939655.0,286047000.1,N
1458939655.9,286047000.1,N
1458939675.8,286046999.6,N
1458939695.6,286047000.6,N
1458939715.4,286047001.2,N
1458939735.3,286046997.0,N
1458939755.1,286046993.5,N
1458939775.8,286046993.9,N
1458939795.7,286046994.6,N
1458939815.5,286046996.1,N
1458939835.3,286046995.5,N
1458939855.2,286047000.7,N
1458939875.9,286046994.9,N
1458939895.7,286046998.2,N
1458939915.6,286046998.8,N
1458939935.4,286046999.1,N
1458939955.2,286046996.5,N
1458939975.1,286046996.5,N
1458939976.0,286046996.5,N
1458939995.8,286047001.5,N
1458940015.6,286047002.1,N
1458940035.5,286047002.1,N
1458940055.3,286046999.8,N
1458940075.1,286047002.4,N
1458940095.8,286047005.4,N
1458940115.7,286047005.9,N
1458940135.5,286047004.1,N
1458940155.3,286047001.9,N
1458940175.2,286047003.9,N
1458940195.9,286047002.0,N
1458940215.7,286047000.8,N
1458940235.6,286047000.2,N
1458940255.4,286046999.8,N
1458940275.2,286047001.2,N
1458940295.1,286047002.8,N
1458940296.0,286047002.8,N
1458940315.8,286047000.9,N
1458940335.6,286047000.7,N
1458940355.5,286047000.5,N
1458940375.3,286046998.8,N
1458940395.1,286047002.3,N
1458940415.9,286046999.8,N
1458940435.7,286047001.7,N
1458940455.5,286046999.8,N
1458940475.3,286046998.5,N
1458940495.2,286046997.3,N
1458940515.0,286046999.4,N
1458940515.9,286046999.4,N
1458940535.7,286046995.9,N
1458940555.6,286046993.8,N
1458940575.4,286046992.4,Y
1458940595.2,286046992.1,P
1458940615.1,286046991.8,N
1458940616.0,286046991.8,N
1458940635.8,286046993.0,N
1458940655.6,286046992.9,N
1458940675.5,286046992.8,N
1458940695.3,286046990.5,Y
1458940715.1,286046997.8,P
1458940735.9,286046996.7,N
1458940755.7,286046997.5,N
1458940775.5,286046996.0,N
1458940795.4,286046995.4,Y
1458940815.2,286046999.5,P
1458940835.0,286047000.6,N
1458940835.9,286047000.6,N
1458940855.8,286046999.1,N
1458940875.6,286046998.7,N
1458940895.4,286046998.8,N
1458940915.3,286046999.5,N
1458940935.1,286046997.5,N
1458940936.0,286046997.5,N
1458940955.8,286046998.7,N
1458940975.7,286046999.2,N
1458940995.5,286046998.0,N
1458941015.3,286046997.0,N
1458941035.2,286046997.8,N
1458941055.9,286046997.5,N
1458941075.7,286046997.1,N
1458941095.6,286047000.4,N
1458941115.4,286046999.9,N
1458941135.2,286047000.2,N
1458941155.0,286047002.0,N
1458941155.9,286047002.0,N
1458941175.8,286047002.4,N
1458941195.6,286046998.9,N
1458941215.4,286047002.8,N
1458941235.3,286047000.9,N
1458941255.1,286047000.0,N
1458941275.8,286046999.6,N
1458941295.7,286046998.7,N
1458941315.5,286046997.1,N
1458941335.3,286046995.4,N
1458941355.2,286046997.3,N
1458941375.9,286046997.6,N
1458941395.7,286046997.4,N
1458941415.6,286046997.8,N
1458941435.4,286046999.5,N
1458941455.2,286046998.7,N
1458941475.0,286046999.1,N
1458941475.9,286046999.1,N
1458941495.8,286047000.4,N
1458941515.6,286047000.3,N
1458941535.4,286047000.5,N
1458941555.3,286047000.1,N
1458941575.1,286047004.3,N
1458941595.8,286047005.9,Y
1458941615.7,286047009.1,P
1458941635.5,286047006.5,N
1458941655.3,286047005.5,N
1458941675.2,286047004.5,N
1458941695.9,286047007.7,N
1458941715.7,286047008.5,N
1458941735.6,286047010.6,Y
1458941755.4,286047004.3,P
1458941775.2,286047003.7,P
1458941795.1,286047003.4,P
1458941796.0,286047003.4,Y
1458941815.8,286046997.1,P
1458941835.6,286046996.7,N
1458941855.5,286046995.6,N
1458941875.3,286046993.4,N
1458941895.1,286046995.9,N
1458941915.9,286046993.8,N
1458941935.7,286046992.6,N
1458941955.5,286046991.7,N
1458941975.4,286046991.2,N
1458941995.2,286046991.1,N
1458942015.0,286046992.6,N
1458942015.9,286046992.6,N
1458942035.7,286046991.6,N
1458942055.6,286046992.5,N
1458942075.4,286046989.1,Y
1458942095.2,286046995.3,P
1458942115.1,286046995.5,P
1458942116.0,286046995.5,P
1458942135.8,286046993.3,Y
1458942155.7,286046998.8,P
1458942175.5,286046993.9,P
1458942195.3,286046994.7,N
1458942215.2,286046992.4,Y
1458942235.9,286047001.2,P
1458942255.7,286046999.0,N
1458942275.6,286046996.9,N
1458942295.4,286046996.3,N
1458942315.2,286046995.9,N
1458942335.1,286046993.9,Y
1458942336.0,286046993.9,P
1458942355.8,286046995.2,N
1458942375.6,286046995.0,P
1458942395.5,286046995.6,Y
1458942415.3,286047004.3,P
1458942435.1,286047001.3,N
1458942455.9,286047004.2,N
1458942475.7,286047004.2,N
1458942495.5,286047001.6,N
1458942515.3,286047003.3,N
1458942535.2,286047007.6,N
1458942555.0,286047004.6,N
1458942555.9,286047004.6,N
1458942575.7,286047005.5,N
1458942595.6,286047007.0,N
1458942615.4,286047005.8,N
1458942635.2,286047009.0,Y
1458942655.1,286047000.4,P
1458942656.0,286047000.4,N
1458942675.8,286047004.3,N
1458942695.6,286047002.9,N
1458942715.5,286047003.7,N
1458942735.3,286047005.8,Y
1458942755.1,286047002.0,P
1458942775.9,286046998.1,P
1458942795.7,286047001.9,N
1458942815.5,286047000.1,N
1458942835.4,286047001.4,N
1458942855.2,286047004.6,Y
1458942875.0,286047003.6,P
1458942875.9,286047003.6,N
1458942895.8,286047002.7,N
1458942915.6,286047000.0,N
1458942935.4,286047000.8,N
1458942955.3,286047002.4,N
1458942975.1,286046998.6,N
1458942976.0,286046998.6,N
1458942995.8,286046998.3,N
1458943015.7,286046999.8,N
1458943035.5,286047002.3,N
1458943055.3,286047002.2,N
1458943075.2,286047003.4,N
1458943095.9,286047004.6,N
1458943115.7,286047005.0,N
1458943135.5,286047006.1,N
1458943155.4,286047006.1,N
1458943175.2,286047010.6,Y
1458943195.0,286047008.4,P
1458943196.0,286047008.4,N
